Weather History for North Wilkesboro, NC

Change the Weather History Date:

Tuesday, November 13, 2012

  Actual Average Record
Temperature  
Mean Temperature 42 °F -  
Max Temperature 53 °F 60 °F 79 °F (1958)
Min Temperature 32 °F 31 °F 12 °F (1976)
Degree Days  
Heating Degree Days 22    
Moisture  
Dew Point 33 °F    
Average Humidity 67    
Maximum Humidity 100    
Minimum Humidity 33    
Precipitation  
Precipitation 0.13 in - - ()
Sea Level Pressure  
Sea Level Pressure 30.36 in    
Wind  
Wind Speed 3 mph (North)    
Max Wind Speed 12 mph    
Max Gust Speed -    
Visibility 10 miles    
Events Rain    
Averages and records for this station are not official NWS values.
T = Trace of Precipitation, MM = Missing Value Source: NWS Daily Summary

Daily Weather History Graph

Daily Weather History Graph

Search for Another Location

Airport:

Trip Planner

Search our weather history database for the weather conditions in past years. The results will help you decide how hot, cold, wet, or windy it might be!

Date:

Astronomy

Nov. 13, 2012 Rise Set
Actual Time 6:59 AM EST 5:17 PM EST
Civil Twilight 6:32 AM EST 5:44 PM EST
Nautical Twilight 6:01 AM EST 6:15 PM EST
Astronomical Twilight 5:31 AM EST 6:45 PM EST
Moon 6:35 AM EST (11/13) 5:10 PM EST (11/13)
Length of Visible Light 11h 12m
Length of Day
10h 17m
Waning Crescent, 0% of the Moon is Illuminated
Nov 13
Waning Crescent
Nov 13
New
Nov 20
First Quarter
Nov 28
Full
Dec 6
Last Quarter

Hourly Weather History & Observations

Time (EST) Temp. Windchill Dew Point Humidity Pressure Visibility Wind Dir Wind Speed Gust Speed Precip Events Conditions
12:15 AM 50.0 °F - 50.0 °F 100% 30.26 in 7.0 mi NW 3.5 mph - 0.01 in   Heavy Drizzle
12:35 AM 50.0 °F - 46.4 °F 87% 30.27 in 10.0 mi WNW 4.6 mph - 0.04 in Rain Rain
12:55 AM 48.2 °F - 46.4 °F 93% 30.27 in 7.0 mi NW 4.6 mph - 0.08 in Rain Light Rain
1:15 AM 46.4 °F - 46.4 °F 100% 30.27 in 7.0 mi Calm Calm - 0.01 in Rain Rain
1:35 AM 46.4 °F 42.4 °F 44.6 °F 93% 30.27 in 10.0 mi NW 8.1 mph - 0.01 in   Light Drizzle
1:55 AM 46.4 °F - 44.6 °F 93% 30.27 in 10.0 mi Calm Calm - 0.01 in   Overcast
2:15 AM 46.4 °F - 46.4 °F 100% 30.27 in 10.0 mi Calm Calm - 0.01 in Rain Light Rain
2:35 AM 46.4 °F 45.2 °F 42.8 °F 87% 30.27 in 10.0 mi WNW 3.5 mph - 0.01 in   Overcast
2:55 AM 46.4 °F - 42.8 °F 87% 30.27 in 10.0 mi Calm Calm - 0.02 in Rain Light Rain
3:15 AM 44.6 °F - 42.8 °F 93% 30.27 in 10.0 mi Calm Calm - N/A Rain Rain
3:35 AM 44.6 °F - 42.8 °F 93% 30.28 in 10.0 mi Calm Calm - 0.01 in   Light Drizzle
3:55 AM 44.6 °F - 41.0 °F 87% 30.28 in 10.0 mi Calm Calm - 0.01 in   Drizzle
4:15 AM 42.8 °F - 41.0 °F 93% 30.28 in 10.0 mi Calm Calm - N/A   Light Drizzle
4:35 AM 42.8 °F 41.1 °F 39.2 °F 87% 30.29 in 10.0 mi North 3.5 mph - N/A   Overcast
4:55 AM 42.8 °F 41.1 °F 41.0 °F 93% 30.29 in 10.0 mi North 3.5 mph - 0.01 in   Overcast
5:15 AM 42.8 °F 41.1 °F 37.4 °F 81% 30.29 in 10.0 mi NNW 3.5 mph - N/A   Overcast
5:35 AM 42.8 °F 41.1 °F 39.2 °F 87% 30.30 in 10.0 mi NNW 3.5 mph - N/A   Overcast
5:55 AM 42.8 °F 41.1 °F 37.4 °F 81% 30.30 in 10.0 mi NNW 3.5 mph - N/A   Overcast
6:15 AM 42.8 °F 41.1 °F 37.4 °F 81% 30.30 in 10.0 mi North 3.5 mph - N/A   Overcast
6:35 AM 42.8 °F 41.1 °F 35.6 °F 76% 30.32 in 10.0 mi NNW 3.5 mph - N/A   Overcast
7:15 AM 41.0 °F - 35.6 °F 81% 30.34 in 10.0 mi Calm Calm - N/A   Overcast
7:35 AM 41.0 °F - 35.6 °F 81% 30.35 in 10.0 mi Calm Calm - N/A   Overcast
7:55 AM 41.0 °F 38.0 °F 35.6 °F 81% 30.36 in 10.0 mi North 4.6 mph - N/A   Scattered Clouds
8:15 AM 41.0 °F 39.0 °F 35.6 °F 81% 30.37 in 10.0 mi NW 3.5 mph - N/A   Clear
8:35 AM 41.0 °F 39.0 °F 33.8 °F 76% 30.37 in 10.0 mi NNW 3.5 mph - N/A   Scattered Clouds
8:55 AM 42.8 °F - 33.8 °F 70% 30.37 in 10.0 mi Calm Calm - N/A   Scattered Clouds
9:15 AM 44.6 °F 43.1 °F 33.8 °F 66% 30.38 in 10.0 mi WNW 3.5 mph - N/A   Scattered Clouds
9:35 AM 44.6 °F - 33.8 °F 66% 30.39 in 10.0 mi Calm Calm - N/A   Clear
9:55 AM 46.4 °F - 32.0 °F 57% 30.39 in 10.0 mi Calm Calm - N/A   Clear
10:15 AM 48.2 °F - 30.2 °F 50% 30.39 in 10.0 mi NNE 8.1 mph - N/A   Clear
10:35 AM 50.0 °F - 30.2 °F 47% 30.39 in 10.0 mi North 11.5 mph - N/A   Clear
10:55 AM 48.2 °F - 28.4 °F 46% 30.39 in 10.0 mi North 5.8 mph - N/A   Clear
11:15 AM 50.0 °F - 28.4 °F 43% 30.39 in 10.0 mi ENE 3.5 mph - N/A   Clear
11:35 AM 50.0 °F - 30.2 °F 47% 30.39 in 10.0 mi East 4.6 mph - N/A   Clear
11:55 AM 50.0 °F - 28.4 °F 43% 30.38 in 10.0 mi NE 6.9 mph - N/A   Clear
12:15 PM 51.8 °F - 28.4 °F 41% 30.38 in 10.0 mi Calm Calm - N/A   Clear
12:35 PM 51.8 °F - 28.4 °F 41% 30.37 in 10.0 mi NNE 5.8 mph - N/A   Clear
12:55 PM 51.8 °F - 26.6 °F 38% 30.36 in 10.0 mi Calm Calm - N/A   Clear
1:15 PM 51.8 °F - 26.6 °F 38% 30.35 in 10.0 mi ESE 3.5 mph - N/A   Clear
1:55 PM 53.6 °F - 24.8 °F 33% 30.34 in 10.0 mi ENE 5.8 mph - N/A   Clear
2:35 PM 53.6 °F - 28.4 °F 38% 30.34 in 10.0 mi ENE 5.8 mph - N/A   Clear
2:55 PM 53.6 °F - 26.6 °F 35% 30.34 in 10.0 mi East 3.5 mph - N/A   Clear
3:15 PM 53.6 °F - 28.4 °F 38% 30.35 in 10.0 mi ENE 4.6 mph - N/A   Clear
3:35 PM 53.6 °F - 26.6 °F 35% 30.35 in 10.0 mi North 6.9 mph - N/A   Clear
3:55 PM 53.6 °F - 26.6 °F 35% 30.35 in 10.0 mi North 9.2 mph - N/A   Clear
4:15 PM 51.8 °F - 26.6 °F 38% 30.36 in 10.0 mi North 6.9 mph - N/A   Clear
4:35 PM 51.8 °F - 26.6 °F 38% 30.36 in 10.0 mi NNE 5.8 mph - N/A   Clear
4:55 PM 50.0 °F - 28.4 °F 43% 30.37 in 10.0 mi NE 5.8 mph - N/A   Clear
5:15 PM 46.4 °F - 28.4 °F 50% 30.37 in 10.0 mi Calm Calm - N/A   Clear
5:35 PM 44.6 °F 41.4 °F 28.4 °F 53% 30.38 in 10.0 mi NNE 5.8 mph - N/A   Clear
5:55 PM 44.6 °F 43.1 °F 28.4 °F 53% 30.39 in 10.0 mi North 3.5 mph - N/A   Clear
6:15 PM 42.8 °F 39.3 °F 26.6 °F 53% 30.40 in 10.0 mi North 5.8 mph - N/A   Clear
6:55 PM 41.0 °F 37.1 °F 26.6 °F 57% 30.41 in 10.0 mi North 5.8 mph - N/A   Clear
7:15 PM 42.8 °F 40.1 °F 26.6 °F 53% 30.42 in 10.0 mi North 4.6 mph - N/A   Clear
7:35 PM 41.0 °F 38.0 °F 26.6 °F 57% 30.42 in 10.0 mi North 4.6 mph - N/A   Clear
7:55 PM 41.0 °F 38.0 °F 26.6 °F 57% 30.42 in 10.0 mi North 4.6 mph - N/A   Clear
8:15 PM 37.4 °F - 28.4 °F 70% 30.43 in 10.0 mi Calm Calm - N/A   Clear
8:35 PM 37.4 °F - 28.4 °F 70% 30.44 in 10.0 mi Calm Calm - N/A   Clear
8:55 PM 37.4 °F - 28.4 °F 70% 30.44 in 10.0 mi Calm Calm - N/A   Clear
9:15 PM 35.6 °F - 28.4 °F 75% 30.45 in 10.0 mi Calm Calm - N/A   Clear
9:35 PM 35.6 °F - 26.6 °F 70% 30.45 in 10.0 mi Calm Calm - N/A   Clear
9:55 PM 33.8 °F - 28.4 °F 81% 30.46 in 10.0 mi Calm Calm - N/A   Clear
10:15 PM 33.8 °F - 26.6 °F 75% 30.46 in 10.0 mi Calm Calm - N/A   Clear
10:35 PM 32.0 °F - 28.4 °F 87% 30.46 in 7.0 mi Calm Calm - N/A   Clear
10:55 PM 33.8 °F - 26.6 °F 75% 30.46 in 10.0 mi Calm Calm - N/A   Clear
11:15 PM 32.0 °F - 28.4 °F 87% 30.45 in 10.0 mi Calm Calm - N/A   Clear
11:35 PM 32.0 °F - 28.4 °F 87% 30.46 in 10.0 mi Calm Calm - N/A   Clear
11:55 PM 32.0 °F - 28.4 °F 87% 30.45 in 10.0 mi Calm Calm - N/A   Clear